User: anonymous   Login
Location: Unspecified
(0.0000°N, 0.0000°E)
Time: 17:22:40
(UTC+00:00)
Language:

MetOp-B - Orbit

View from above orbital plane
View from above orbital plane
View from above satellite
View from above satellite

Ground track
Ground track

The orbit data is extracted from the following two-line orbital elements,

1 38771U 12049A   18115.93632238 -.00000001 +00000-0 +19617-4 0  9994
2 38771 098.6770 176.2569 0002288 086.4488 033.5658 14.21500956290711
Epoch (UTC): 25 April 2018 22:28:18
Eccentricity: 0.0002288
inclination: 98.6770°
perigee height: 818 km
apogee height: 822 km
right ascension of ascending node: 176.2569°
argument of perigee: 86.4488°
revolutions per day: 14.21500956
mean anomaly at epoch: 33.5658°
orbit number at epoch: 29071

The dashed part of the orbit path shows where the satellite is in the earth's shadow,  

DLR